Terminal Aerodrome Forecast
Issued by NWS

Home | Current Version | Previous Version | Graphics & Text | Print | Product List | Glossary On
Versions: 1 2 3 4 5 6 7 8 9 10 11 12 13 14 15 16 17 18 19
000
FTUS43 KBIS 291400 AAB
TAFMOT
TAF AMD
KMOT 291402Z 2914/3012 31010KT P6SM VCSH SCT009 BKN100
      TEMPO 2914/2915 BKN009
     FM291800 36012KT P6SM SCT030 BKN080
     FM300300 04009KT P6SM FEW100=

USA.gov is the U.S. government's official web portal to all federal, state and local government web resources and services.